Date,TemperatureHighF,TemperatureAvgF,TemperatureLowF,DewpointHighF,DewpointAvgF,DewpointLowF,HumidityHigh,HumidityAvg,HumidityLow,PressureMaxIn,PressureMinIn,WindSpeedMaxMPH,WindSpeedAvgMPH,GustSpeedMaxMPH,PrecipitationSumIn
2013-3-1,35,31,28,37,35,33,26,25,24,29.91,29.85,12,3,19,0.00
2013-3-2,37,29,23,34,34,32,25,24,23,29.94,29.82,17,4,21,0.01
2013-3-3,30,24,20,32,31,30,23,22,21,30.04,29.91,15,4,18,0.01
2013-3-4,51,35,21,33,30,27,23,21,19,30.14,30.01,12,3,19,0.00
2013-3-5,47,40,32,42,37,32,31,27,23,30.02,29.58,13,2,22,0.62
2013-3-6,32,27,23,38,34,32,28,24,23,30.16,29.65,28,6,35,0.00
2013-3-7,44,32,25,39,35,32,27,25,23,30.27,30.16,10,2,13,0.01
2013-3-8,52,35,23,36,34,32,25,23,21,30.32,30.23,10,2,14,0.00
2013-3-9,63,44,23,34,32,30,25,23,21,30.29,30.15,13,2,16,0.00
2013-3-10,66,51,38,36,34,34,26,25,25,30.17,30.01,13,3,21,0.00
2013-3-11,56,51,49,45,41,36,34,31,26,30.04,29.71,17,5,27,0.43
2013-3-12,52,44,35,45,42,38,36,32,28,29.98,29.68,16,3,18,0.12
2013-3-13,43,35,26,40,38,36,30,27,25,30.15,29.96,19,5,26,0.00
2013-3-14,45,31,21,41,34,32,32,23,21,30.27,30.14,18,4,26,0.00
2013-3-15,66,47,28,41,36,32,33,25,23,30.19,29.88,18,2,22,0.00
2013-3-16,72,61,52,41,39,38,31,29,28,29.87,29.66,19,4,27,0.00
2013-3-17,71,60,51,42,41,41,33,31,31,29.83,29.72,12,2,15,0.00
2013-3-18,51,45,41,45,43,41,34,33,32,29.86,29.73,19,4,19,0.57
2013-3-19,53,44,35,44,41,37,35,30,27,30.02,29.78,19,5,26,0.01
2013-3-20,52,38,29,38,36,31,28,25,21,30.04,29.78,14,3,25,0.00
2013-3-21,33,26,18,36,34,31,26,23,20,29.95,29.75,16,5,22,0.01
2013-3-22,48,33,19,39,33,28,29,23,20,30.02,29.94,7,1,11,0.00
2013-3-23,54,43,35,38,37,36,29,27,26,29.99,29.76,10,2,13,0.08
2013-3-24,49,42,38,39,39,37,30,29,28,29.83,29.39,13,4,17,0.79
2013-3-25,39,32,27,39,37,34,30,27,25,29.87,29.44,15,6,27,0.01
2013-3-26,34,28,25,41,34,33,31,24,23,30.20,29.87,15,6,23,0.02
2013-3-27,44,33,25,36,35,32,26,24,22,30.26,30.18,15,3,17,0.01
2013-3-28,48,36,24,36,34,32,25,23,21,30.27,30.19,20,3,21,0.00
2013-3-29,54,36,23,36,34,32,26,24,22,30.31,30.21,13,1,15,0.07
2013-3-30,60,47,38,38,37,36,28,27,26,30.21,29.97,9,1,13,0.18
2013-3-31,62,51,45,42,40,38,33,31,28,29.97,29.75,12,2,18,0.29